| time (UTC) | temp C | wind direction | speed KPH | gust KPH | rain 1hr cm | rain 24hr cm | rain mn cm | humidity % | barometer mb |
| 20260510000033 | 27 | 111 | 3.2 | 6.4 | 0.00 | 0.53 | 0.53 | 76 | 1010.1 |
| 20260509235530 | 27 | 226 | 0.0 | 4.8 | 0.00 | 0.53 | 0.53 | 76 | 1010.3 |
| 20260509235027 | 27 | 112 | 1.6 | 4.8 | 0.00 | 0.53 | 0.53 | 75 | 1010.3 |
| 20260509234523 | 27 | 92 | 3.2 | 4.8 | 0.00 | 0.53 | 0.53 | 75 | 1010.2 |
| 20260509234021 | 27 | 96 | 3.2 | 4.8 | 0.00 | 0.53 | 0.53 | 75 | 1010.1 |
| 20260509233518 | 27 | 23 | 3.2 | 8.0 | 0.00 | 0.53 | 0.53 | 75 | 1010.1 |
| 20260509233015 | 27 | 14 | 3.2 | 3.2 | 0.00 | 0.53 | 0.53 | 74 | 1010.1 |
| 20260509232512 | 27 | 53 | 0.0 | 6.4 | 0.00 | 0.53 | 0.53 | 74 | 1010.2 |
| 20260509232008 | 27 | 20 | 3.2 | 6.4 | 0.00 | 0.53 | 0.53 | 75 | 1010.2 |
| 20260509231505 | 27 | 26 | 3.2 | 4.8 | 0.00 | 0.53 | 0.53 | 73 | 1010.2 |
| 20260509231002 | 27 | 63 | 0.0 | 3.2 | 0.00 | 0.53 | 0.53 | 75 | 1010.1 |
| 20260509230459 | 28 | 141 | 0.0 | 4.8 | 0.00 | 0.53 | 0.53 | 73 | 1010.1 |
| 20260509225955 | 27 | 147 | 0.0 | 3.2 | 0.00 | 0.53 | 0.53 | 75 | 1010.2 |
| 20260509225451 | 27 | 349 | 1.6 | 4.8 | 0.00 | 0.53 | 0.53 | 74 | 1010.1 |
| 20260509224947 | 28 | 72 | 0.0 | 4.8 | 0.00 | 0.53 | 0.53 | 73 | 1010.0 |
| 20260509224443 | 28 | 140 | 1.6 | 6.4 | 0.00 | 0.53 | 0.53 | 74 | 1010.0 |
| 20260509223940 | 28 | 25 | 0.0 | 4.8 | 0.00 | 0.53 | 0.53 | 74 | 1009.8 |
| 20260509223437 | 28 | 344 | 1.6 | 4.8 | 0.00 | 0.53 | 0.53 | 72 | 1009.8 |
| 20260509222934 | 28 | 11 | 1.6 | 8.0 | 0.00 | 0.53 | 0.53 | 70 | 1010.0 |
| 20260509222429 | 28 | 156 | 4.8 | 4.8 | 0.00 | 0.53 | 0.53 | 72 | 1009.8 |
| 20260509221925 | 28 | 160 | 0.0 | 3.2 | 0.00 | 0.53 | 0.53 | 72 | 1009.9 |
| 20260509221422 | 27 | 11 | 3.2 | 6.4 | 0.00 | 0.53 | 0.53 | 72 | 1009.9 |
| 20260509220918 | 27 | 144 | 0.0 | 3.2 | 0.00 | 0.53 | 0.53 | 73 | 1009.8 |
| 20260509220414 | 28 | 126 | 3.2 | 4.8 | 0.00 | 0.53 | 0.53 | 71 | 1009.8 |
| 20260509215910 | 28 | 14 | 3.2 | 4.8 | 0.00 | 0.53 | 0.53 | 71 | 1009.7 |
| 20260509215406 | 28 | 355 | 0.0 | 6.4 | 0.00 | 0.53 | 0.53 | 72 | 1009.9 |
| 20260509214904 | 28 | 12 | 3.2 | 8.0 | 0.00 | 0.53 | 0.53 | 72 | 1010.0 |
| 20260509214401 | 28 | 29 | 3.2 | 9.7 | 0.00 | 0.53 | 0.53 | 72 | 1010.0 |
| 20260509213858 | 27 | 304 | 1.6 | 6.4 | 0.00 | 0.53 | 0.53 | 76 | 1010.1 |
| 20260509213354 | 27 | 357 | 3.2 | 6.4 | 0.00 | 0.53 | 0.53 | 74 | 1010.3 |
| 20260509212851 | 28 | 19 | 3.2 | 6.4 | 0.00 | 0.53 | 0.53 | 73 | 1010.3 |
| 20260509212349 | 27 | 17 | 3.2 | 3.2 | 0.00 | 0.53 | 0.53 | 76 | 1010.3 |
| 20260509211844 | 27 | 27 | 3.2 | 3.2 | 0.00 | 0.53 | 0.53 | 74 | 1010.3 |
| 20260509211340 | 28 | 152 | 3.2 | 4.8 | 0.00 | 0.53 | 0.53 | 71 | 1010.2 |
| 20260509210837 | 30 | 70 | 1.6 | 6.4 | 0.00 | 0.53 | 0.53 | 66 | 1010.2 |
| 20260509210334 | 30 | 345 | 3.2 | 4.8 | 0.00 | 0.53 | 0.53 | 68 | 1010.3 |
| 20260509205834 | 30 | 317 | 3.2 | 4.8 | 0.00 | 0.53 | 0.53 | 67 | 1010.1 |
| 20260509205329 | 29 | 331 | 1.6 | 3.2 | 0.00 | 0.53 | 0.53 | 71 | 1010.4 |
| 20260509204825 | 28 | 129 | 0.0 | 4.8 | 0.00 | 0.53 | 0.53 | 72 | 1010.5 |
| 20260509204322 | 28 | 6 | 0.0 | 8.0 | 0.00 | 0.53 | 0.53 | 71 | 1010.5 |
| 20260509203819 | 28 | 75 | 3.2 | 6.4 | 0.00 | 0.53 | 0.53 | 71 | 1010.6 |
| 20260509203315 | 27 | 76 | 3.2 | 8.0 | 0.00 | 0.53 | 0.53 | 74 | 1010.6 |
| 20260509202811 | 27 | 132 | 3.2 | 8.0 | 0.00 | 0.53 | 0.53 | 76 | 1010.6 |
| 20260509202308 | 27 | 5 | 3.2 | 3.2 | 0.00 | 0.53 | 0.53 | 75 | 1010.6 |
| 20260509201807 | 28 | 73 | 6.4 | 8.0 | 0.00 | 0.53 | 0.53 | 73 | 1010.7 |
| 20260509201304 | 27 | 99 | 3.2 | 8.0 | 0.00 | 0.53 | 0.53 | 77 | 1010.7 |
| 20260509200800 | 27 | 316 | 1.6 | 8.0 | 0.00 | 0.53 | 0.53 | 75 | 1010.8 |
| 20260509200255 | 26 | 118 | 3.2 | 4.8 | 0.00 | 0.53 | 0.53 | 77 | 1010.6 |
| 20260509195752 | 26 | 242 | 0.0 | 6.4 | 0.00 | 0.53 | 0.53 | 80 | 1010.8 |
| 20260509195247 | 26 | 21 | 3.2 | 4.8 | 0.00 | 0.53 | 0.53 | 80 | 1011.1 |
| 20260509194742 | 26 | 26 | 3.2 | 6.4 | 0.00 | 0.53 | 0.53 | 80 | 1011.1 |
| 20260509194238 | 26 | 94 | 3.2 | 3.2 | 0.00 | 0.53 | 0.53 | 82 | 1011.1 |
| 20260509193735 | 26 | 88 | 3.2 | 4.8 | 0.00 | 0.53 | 0.53 | 81 | 1011.0 |
| 20260509193235 | 26 | 100 | 1.6 | 4.8 | 0.00 | 0.53 | 0.53 | 81 | 1011.1 |
| 20260509192731 | 27 | 81 | 3.2 | 6.4 | 0.00 | 0.53 | 0.53 | 77 | 1011.1 |
| 20260509192226 | 27 | 53 | 3.2 | 3.2 | 0.00 | 0.53 | 0.53 | 80 | 1011.1 |
| 20260509191722 | 26 | 351 | 3.2 | 4.8 | 0.00 | 0.53 | 0.53 | 78 | 1011.4 |
| 20260509191219 | 27 | 333 | 3.2 | 9.7 | 0.00 | 0.53 | 0.53 | 78 | 1011.3 |
| 20260509190715 | 26 | 0 | 0.0 | 4.8 | 0.00 | 0.53 | 0.53 | 81 | 1011.4 |
| 20260509190212 | 26 | 45 | 0.0 | 6.4 | 0.00 | 0.53 | 0.53 | 82 | 1011.4 |
| 20260509185710 | 25 | 130 | 1.6 | 4.8 | 0.00 | 0.53 | 0.53 | 84 | 1011.5 |
| 20260509185206 | 25 | 214 | 0.0 | 3.2 | 0.00 | 0.53 | 0.53 | 83 | 1011.6 |
| 20260509184703 | 25 | 17 | 1.6 | 3.2 | 0.00 | 0.53 | 0.53 | 86 | 1011.9 |
| 20260509184200 | 25 | 129 | 0.0 | 3.2 | 0.00 | 0.53 | 0.53 | 87 | 1011.9 |
| 20260509183656 | 24 | 67 | 3.2 | 4.8 | 0.00 | 0.53 | 0.53 | 87 | 1011.9 |
| 20260509183152 | 25 | 128 | 1.6 | 4.8 | 0.00 | 0.53 | 0.53 | 86 | 1011.9 |
| 20260509182647 | 24 | 97 | 3.2 | 4.8 | 0.00 | 0.53 | 0.53 | 87 | 1011.7 |
| 20260509182145 | 24 | 89 | 3.2 | 4.8 | 0.00 | 0.53 | 0.53 | 87 | 1011.8 |
| 20260509181643 | 24 | 118 | 0.0 | 3.2 | 0.00 | 0.53 | 0.53 | 87 | 1012.1 |
| 20260509181141 | 24 | 129 | 0.0 | 0.0 | 0.00 | 0.53 | 0.53 | 88 | 1012.0 |
| 20260509180637 | 24 | 110 | 0.0 | 1.6 | 0.00 | 0.53 | 0.53 | 88 | 1012.2 |
| 20260509180133 | 24 | 32 | 0.0 | 3.2 | 0.00 | 0.53 | 0.53 | 88 | 1012.2 |
| 20260509175629 | 23 | 49 | 1.6 | 3.2 | 0.00 | 0.53 | 0.53 | 88 | 1012.1 |
| 20260509175126 | 23 | 205 | 0.0 | 3.2 | 0.00 | 0.53 | 0.53 | 87 | 1012.1 |
| 20260509174622 | 24 | 142 | 0.0 | 0.0 | 0.00 | 0.53 | 0.53 | 89 | 1012.1 |
| 20260509174117 | 23 | 5 | 0.0 | 3.2 | 0.00 | 0.53 | 0.53 | 89 | 1012.3 |
| 20260509173613 | 23 | 48 | 3.2 | 3.2 | 0.00 | 0.53 | 0.53 | 88 | 1012.1 |
| 20260509173109 | 23 | 13 | 0.0 | 3.2 | 0.00 | 0.53 | 0.53 | 89 | 1012.1 |
| 20260509172606 | 23 | 296 | 0.0 | 0.0 | 0.00 | 0.53 | 0.53 | 91 | 1012.3 |
| 20260509172102 | 23 | 159 | 0.0 | 0.0 | 0.00 | 0.53 | 0.53 | 91 | 1012.4 |
| 20260509171558 | 23 | 0 | 0.0 | 1.6 | 0.00 | 0.53 | 0.53 | 91 | 1012.3 |
| 20260509171054 | 23 | 55 | 3.2 | 3.2 | 0.00 | 0.53 | 0.53 | 91 | 1012.3 |
| 20260509170550 | 23 | 38 | 0.0 | 4.8 | 0.00 | 0.53 | 0.53 | 91 | 1012.3 |
| 20260509170047 | 22 | 63 | 0.0 | 4.8 | 0.00 | 0.53 | 0.53 | 92 | 1012.3 |
| 20260509165545 | 22 | 145 | 0.0 | 3.2 | 0.00 | 0.53 | 0.53 | 92 | 1012.4 |
| 20260509165041 | 22 | 129 | 0.0 | 3.2 | 0.00 | 0.53 | 0.53 | 93 | 1012.2 |
| 20260509164537 | 22 | 91 | 3.2 | 3.2 | 0.00 | 0.53 | 0.53 | 93 | 1012.4 |
| 20260509164033 | 22 | 100 | 3.2 | 4.8 | 0.00 | 0.53 | 0.53 | 94 | 1012.4 |
| 20260509163531 | 22 | 108 | 3.2 | 4.8 | 0.00 | 0.53 | 0.53 | 94 | 1012.3 |
| 20260509163026 | 22 | 118 | 0.0 | 4.8 | 0.00 | 0.53 | 0.53 | 94 | 1012.4 |
| 20260509162524 | 22 | 148 | 0.0 | 3.2 | 0.00 | 0.53 | 0.53 | 94 | 1012.4 |
| 20260509162019 | 22 | 20 | 1.6 | 1.6 | 0.00 | 0.53 | 0.53 | 94 | 1012.3 |
| 20260509161516 | 22 | 108 | 1.6 | 3.2 | 0.00 | 0.53 | 0.53 | 94 | 1012.2 |
| 20260509161016 | 22 | 189 | 0.0 | 3.2 | 0.00 | 0.53 | 0.53 | 94 | 1012.3 |
| 20260509160512 | 22 | 109 | 3.2 | 3.2 | 0.00 | 0.53 | 0.53 | 95 | 1012.2 |
| 20260509160008 | 21 | 98 | 3.2 | 3.2 | 0.00 | 0.53 | 0.53 | 95 | 1012.3 |
| 20260509155504 | 21 | 98 | 3.2 | 4.8 | 0.00 | 0.53 | 0.53 | 95 | 1012.3 |
| 20260509154955 | 21 | 57 | 3.2 | 4.8 | 0.00 | 0.53 | 0.53 | 95 | 1012.2 |
| 20260509154451 | 21 | 74 | 1.6 | 4.8 | 0.00 | 0.53 | 0.53 | 95 | 1012.0 |
| 20260509153949 | 21 | 8 | 0.0 | 3.2 | 0.00 | 0.53 | 0.53 | 96 | 1011.8 |
| 20260509153446 | 21 | 68 | 0.0 | 3.2 | 0.00 | 0.53 | 0.53 | 97 | 1011.9 |
| 20260509152943 | 21 | 117 | 0.0 | 3.2 | 0.00 | 0.53 | 0.53 | 97 | 1012.0 |
| 20260509152438 | 21 | 43 | 1.6 | 1.6 | 0.00 | 0.53 | 0.53 | 97 | 1012.0 |
| 20260509151936 | 21 | 142 | 0.0 | 0.0 | 0.00 | 0.53 | 0.53 | 97 | 1012.0 |
| 20260509151432 | 21 | 122 | 0.0 | 0.0 | 0.00 | 0.53 | 0.53 | 97 | 1011.9 |
| 20260509150930 | 21 | 113 | 0.0 | 3.2 | 0.00 | 0.53 | 0.53 | 98 | 1011.8 |
| 20260509150427 | 20 | 37 | 0.0 | 1.6 | 0.00 | 0.53 | 0.53 | 98 | 1011.9 |
| 20260509145926 | 20 | 9 | 1.6 | 3.2 | 0.00 | 0.53 | 0.53 | 98 | 1011.8 |
| 20260509145426 | 20 | 82 | 3.2 | 3.2 | 0.00 | 0.53 | 0.53 | 98 | 1011.9 |
| 20260509144921 | 20 | 43 | 0.0 | 0.0 | 0.00 | 0.53 | 0.53 | 98 | 1012.0 |
| 20260509144418 | 20 | 74 | 3.2 | 3.2 | 0.00 | 0.53 | 0.53 | 98 | 1012.0 |
| 20260509143916 | 20 | 15 | 0.0 | 1.6 | 0.00 | 0.53 | 0.53 | 98 | 1012.1 |
| 20260509143413 | 20 | 294 | 0.0 | 0.0 | 0.00 | 0.53 | 0.53 | 98 | 1012.2 |
| 20260509142909 | 20 | 128 | 3.2 | 3.2 | 0.00 | 0.53 | 0.53 | 98 | 1012.3 |
| 20260509142405 | 20 | 92 | 1.6 | 3.2 | 0.00 | 0.53 | 0.53 | 98 | 1012.4 |
| 20260509141901 | 20 | 111 | 0.0 | 3.2 | 0.00 | 0.53 | 0.53 | 98 | 1012.4 |
| 20260509141358 | 20 | 115 | 0.0 | 3.2 | 0.00 | 0.53 | 0.53 | 98 | 1012.2 |
| 20260509140855 | 20 | 63 | 1.6 | 1.6 | 0.00 | 0.53 | 0.53 | 98 | 1012.0 |
| 20260509140352 | 20 | 77 | 0.0 | 3.2 | 0.00 | 0.53 | 0.53 | 98 | 1012.3 |
| 20260509135850 | 20 | 33 | 1.6 | 1.6 | 0.00 | 0.53 | 0.53 | 98 | 1012.2 |
| 20260509135347 | 20 | 64 | 0.0 | 1.6 | 0.00 | 0.53 | 0.53 | 98 | 1012.3 |
| 20260509134844 | 20 | 89 | 0.0 | 3.2 | 0.00 | 0.53 | 0.53 | 98 | 1012.4 |
| 20260509134342 | 20 | 34 | 1.6 | 3.2 | 0.00 | 0.53 | 0.53 | 98 | 1012.5 |
| 20260509133838 | 20 | 41 | 0.0 | 1.6 | 0.00 | 0.53 | 0.53 | 98 | 1012.6 |
| 20260509133335 | 20 | 48 | 0.0 | 1.6 | 0.00 | 0.53 | 0.53 | 98 | 1012.4 |
| 20260509132834 | 20 | 51 | 0.0 | 0.0 | 0.00 | 0.53 | 0.53 | 98 | 1012.3 |
| 20260509132332 | 20 | 87 | 0.0 | 1.6 | 0.00 | 0.53 | 0.53 | 98 | 1012.4 |
| 20260509131828 | 20 | 98 | 0.0 | 3.2 | 0.00 | 0.53 | 0.53 | 98 | 1012.3 |
| 20260509131325 | 20 | 89 | 0.0 | 3.2 | 0.00 | 0.53 | 0.53 | 98 | 1012.2 |
| 20260509130822 | 20 | 89 | 0.0 | 1.6 | 0.00 | 0.53 | 0.53 | 98 | 1012.3 |
| 20260509130317 | 20 | 51 | 3.2 | 3.2 | 0.00 | 0.53 | 0.53 | 98 | 1012.4 |
| 20260509125814 | 20 | 55 | 0.0 | 1.6 | 0.00 | 0.53 | 0.53 | 98 | 1012.4 |
| 20260509125310 | 20 | 89 | 0.0 | 1.6 | 0.00 | 0.53 | 0.53 | 98 | 1012.1 |
| 20260509124807 | 20 | 85 | 1.6 | 3.2 | 0.00 | 0.53 | 0.53 | 98 | 1012.1 |
| 20260509124303 | 20 | 130 | 0.0 | 1.6 | 0.00 | 0.53 | 0.53 | 98 | 1012.0 |
| 20260509123802 | 20 | 104 | 1.6 | 3.2 | 0.00 | 0.53 | 0.53 | 98 | 1012.0 |
| 20260509123259 | 20 | 132 | 1.6 | 3.2 | 0.00 | 0.53 | 0.53 | 98 | 1011.7 |
| 20260509122754 | 20 | 39 | 1.6 | 3.2 | 0.00 | 0.53 | 0.53 | 98 | 1011.8 |
| 20260509122251 | 20 | 97 | 0.0 | 3.2 | 0.00 | 0.53 | 0.53 | 98 | 1011.8 |
| 20260509121748 | 20 | 76 | 0.0 | 3.2 | 0.00 | 0.53 | 0.53 | 98 | 1011.7 |
| 20260509121246 | 20 | 98 | 1.6 | 3.2 | 0.00 | 0.53 | 0.53 | 98 | 1011.7 |
| 20260509120744 | 20 | 123 | 1.6 | 3.2 | 0.00 | 0.53 | 0.53 | 98 | 1011.6 |
| 20260509120241 | 19 | 117 | 1.6 | 1.6 | 0.00 | 0.53 | 0.53 | 98 | 1011.7 |
| 20260509115739 | 19 | 95 | 1.6 | 4.8 | 0.00 | 0.53 | 0.53 | 98 | 1011.7 |
| 20260509115236 | 19 | 34 | 3.2 | 3.2 | 0.00 | 0.53 | 0.53 | 98 | 1011.7 |
| 20260509114734 | 19 | 4 | 1.6 | 3.2 | 0.00 | 0.53 | 0.53 | 98 | 1011.5 |
| 20260509114233 | 19 | 353 | 1.6 | 3.2 | 0.00 | 0.53 | 0.53 | 98 | 1011.7 |
| 20260509113731 | 19 | 107 | 1.6 | 3.2 | 0.00 | 0.53 | 0.53 | 98 | 1011.5 |
| 20260509113228 | 19 | 28 | 0.0 | 3.2 | 0.00 | 0.53 | 0.53 | 98 | 1011.6 |
| 20260509112725 | 19 | 72 | 1.6 | 3.2 | 0.00 | 0.53 | 0.53 | 98 | 1011.5 |
| 20260509112222 | 20 | 33 | 3.2 | 4.8 | 0.00 | 0.53 | 0.53 | 98 | 1011.3 |
| 20260509111718 | 20 | 25 | 3.2 | 4.8 | 0.00 | 0.53 | 0.53 | 98 | 1011.3 |
| 20260509111215 | 20 | 61 | 1.6 | 3.2 | 0.00 | 0.53 | 0.53 | 98 | 1011.3 |
| 20260509110713 | 20 | 77 | 0.0 | 3.2 | 0.00 | 0.53 | 0.53 | 98 | 1010.8 |
| 20260509110210 | 20 | 95 | 1.6 | 3.2 | 0.00 | 0.53 | 0.53 | 98 | 1010.8 |
| 20260509105707 | 20 | 122 | 0.0 | 3.2 | 0.00 | 0.53 | 0.53 | 98 | 1010.8 |
| 20260509105205 | 20 | 35 | 1.6 | 3.2 | 0.00 | 0.53 | 0.53 | 98 | 1010.8 |
| 20260509104702 | 20 | 113 | 0.0 | 3.2 | 0.00 | 0.53 | 0.53 | 98 | 1010.8 |
| 20260509104159 | 20 | 89 | 0.0 | 1.6 | 0.00 | 0.53 | 0.53 | 98 | 1011.0 |
| 20260509103656 | 20 | 89 | 0.0 | 3.2 | 0.00 | 0.53 | 0.53 | 98 | 1010.7 |
| 20260509103154 | 20 | 89 | 0.0 | 1.6 | 0.00 | 0.53 | 0.53 | 98 | 1011.1 |
| 20260509102652 | 20 | 97 | 3.2 | 4.8 | 0.00 | 0.53 | 0.53 | 98 | 1010.8 |
| 20260509102148 | 20 | 102 | 0.0 | 0.0 | 0.00 | 0.53 | 0.53 | 98 | 1011.0 |
| 20260509101644 | 20 | 37 | 0.0 | 0.0 | 0.00 | 0.53 | 0.53 | 98 | 1010.8 |
| 20260509101142 | 20 | 80 | 1.6 | 3.2 | 0.00 | 0.53 | 0.53 | 98 | 1010.8 |
| 20260509100639 | 19 | 109 | 0.0 | 0.0 | 0.00 | 0.53 | 0.53 | 98 | 1011.1 |
| 20260509100136 | 19 | 37 | 0.0 | 0.0 | 0.00 | 0.53 | 0.53 | 98 | 1010.8 |
| 20260509095632 | 20 | 89 | 0.0 | 1.6 | 0.00 | 0.53 | 0.53 | 98 | 1010.8 |
| 20260509095130 | 19 | 118 | 1.6 | 1.6 | 0.00 | 0.53 | 0.53 | 98 | 1011.0 |
| 20260509094626 | 19 | 50 | 0.0 | 0.0 | 0.00 | 0.53 | 0.53 | 97 | 1011.1 |
| 20260509094123 | 19 | 106 | 1.6 | 3.2 | 0.00 | 0.53 | 0.53 | 97 | 1010.7 |
| 20260509093622 | 20 | 89 | 0.0 | 3.2 | 0.00 | 0.53 | 0.53 | 97 | 1010.7 |
| 20260509093118 | 20 | 39 | 1.6 | 3.2 | 0.00 | 0.53 | 0.53 | 97 | 1010.6 |
| 20260509092616 | 20 | 109 | 0.0 | 1.6 | 0.00 | 0.53 | 0.53 | 97 | 1010.6 |
| 20260509092114 | 20 | 89 | 0.0 | 1.6 | 0.00 | 0.53 | 0.53 | 97 | 1010.5 |
| 20260509091612 | 20 | 315 | 0.0 | 0.0 | 0.00 | 0.53 | 0.53 | 97 | 1010.9 |
| 20260509091108 | 20 | 26 | 0.0 | 1.6 | 0.00 | 0.53 | 0.53 | 97 | 1010.8 |
| 20260509090605 | 20 | 269 | 0.0 | 3.2 | 0.00 | 0.53 | 0.53 | 97 | 1010.8 |
| 20260509090058 | 20 | 98 | 0.0 | 3.2 | 0.00 | 0.53 | 0.53 | 97 | 1010.9 |
| 20260509085554 | 20 | 258 | 0.0 | 4.8 | 0.00 | 0.53 | 0.53 | 97 | 1011.1 |
| 20260509085050 | 19 | 356 | 1.6 | 3.2 | 0.00 | 0.53 | 0.53 | 97 | 1010.9 |
| 20260509084548 | 19 | 311 | 0.0 | 3.2 | 0.00 | 0.53 | 0.53 | 97 | 1010.9 |
| 20260509084045 | 19 | 93 | 0.0 | 3.2 | 0.00 | 0.53 | 0.53 | 97 | 1010.9 |
| 20260509083542 | 19 | 44 | 0.0 | 0.0 | 0.00 | 0.53 | 0.53 | 97 | 1011.0 |
| 20260509083038 | 19 | 37 | 0.0 | 3.2 | 0.00 | 0.53 | 0.53 | 97 | 1010.9 |
| 20260509082536 | 18 | 309 | 0.0 | 1.6 | 0.00 | 0.53 | 0.53 | 97 | 1011.1 |
| 20260509082033 | 18 | 34 | 3.2 | 4.8 | 0.00 | 0.53 | 0.53 | 97 | 1010.9 |
| 20260509081530 | 18 | 32 | 0.0 | 4.8 | 0.00 | 0.53 | 0.53 | 97 | 1010.8 |
| 20260509081027 | 18 | 123 | 0.0 | 4.8 | 0.00 | 0.53 | 0.53 | 97 | 1010.8 |
| 20260509080525 | 18 | 81 | 0.0 | 3.2 | 0.00 | 0.53 | 0.53 | 96 | 1010.8 |
| 20260509080023 | 18 | 251 | 0.0 | 4.8 | 0.00 | 0.53 | 0.53 | 97 | 1010.8 |
| 20260509075520 | 18 | 307 | 0.0 | 1.6 | 0.00 | 0.53 | 0.53 | 97 | 1010.8 |
| 20260509075018 | 18 | 63 | 0.0 | 1.6 | 0.00 | 0.53 | 0.53 | 97 | 1010.8 |
| 20260509074515 | 19 | 39 | 0.0 | 3.2 | 0.00 | 0.53 | 0.53 | 97 | 1010.8 |
| 20260509074011 | 19 | 285 | 1.6 | 1.6 | 0.00 | 0.53 | 0.53 | 97 | 1011.0 |
| 20260509073508 | 19 | 32 | 0.0 | 3.2 | 0.00 | 0.53 | 0.53 | 97 | 1010.9 |
| 20260509073004 | 20 | 76 | 0.0 | 3.2 | 0.00 | 0.53 | 0.53 | 97 | 1011.3 |
| 20260509072501 | 20 | 135 | 0.0 | 1.6 | 0.00 | 0.53 | 0.53 | 97 | 1010.9 |
| 20260509071958 | 20 | 95 | 0.0 | 3.2 | 0.00 | 0.53 | 0.53 | 97 | 1011.0 |
| 20260509071454 | 20 | 293 | 0.0 | 4.8 | 0.00 | 0.53 | 0.53 | 97 | 1010.9 |
| 20260509070952 | 20 | 109 | 4.8 | 8.0 | 0.00 | 0.53 | 0.53 | 97 | 1011.1 |
| 20260509070449 | 20 | 97 | 1.6 | 6.4 | 0.05 | 0.53 | 0.53 | 96 | 1010.8 |
| 20260509065944 | 20 | 139 | 4.8 | 8.0 | 0.00 | 0.53 | 0.53 | 96 | 1011.0 |
| 20260509065441 | 20 | 46 | 1.6 | 3.2 | 0.00 | 0.53 | 0.53 | 96 | 1010.6 |
| 20260509064937 | 20 | 155 | 3.2 | 4.8 | 0.05 | 0.53 | 0.53 | 96 | 1011.3 |
| 20260509064435 | 20 | 181 | 1.6 | 6.4 | 0.18 | 0.53 | 0.53 | 96 | 1010.8 |
| 20260509063932 | 20 | 113 | 3.2 | 6.4 | 0.89 | 0.51 | 0.51 | 95 | 1010.6 |
| 20260509063427 | 20 | 109 | 6.4 | 6.4 | 0.97 | 0.48 | 0.48 | 95 | 1010.8 |
| 20260509062924 | 20 | 89 | 3.2 | 3.2 | 0.66 | 0.38 | 0.38 | 94 | 1012.1 |
| 20260509062422 | 20 | 104 | 0.0 | 1.6 | 0.71 | 0.33 | 0.33 | 94 | 1013.0 |
| 20260509061919 | 20 | 37 | 0.0 | 1.6 | 0.61 | 0.23 | 0.23 | 93 | 1013.0 |
| 20260509061417 | 20 | 49 | 3.2 | 3.2 | 1.19 | 0.20 | 0.20 | 92 | 1013.4 |
| 20260509060914 | 21 | 61 | 1.6 | 3.2 | 0.71 | 0.13 | 0.13 | 92 | 1013.4 |
| 20260509060411 | 21 | 25 | 1.6 | 6.4 | 0.00 | 0.00 | 0.00 | 91 | 1013.5 |
| 20260509055905 | 20 | 282 | 3.2 | 3.2 | 0.00 | 0.00 | 0.00 | 91 | 1013.1 |
| 20260509055401 | 20 | 309 | 0.0 | 1.6 | 0.00 | 0.00 | 0.00 | 91 | 1012.7 |
| 20260509054858 | 20 | 29 | 0.0 | 1.6 | 0.00 | 0.00 | 0.00 | 91 | 1012.7 |
| 20260509054355 | 20 | 124 | 0.0 | 1.6 | 0.00 | 0.00 | 0.00 | 91 | 1013.0 |
| 20260509053853 | 20 | 37 | 0.0 | 0.0 | 0.00 | 0.00 | 0.00 | 91 | 1012.9 |
| 20260509053350 | 20 | 304 | 0.0 | 1.6 | 0.00 | 0.00 | 0.00 | 91 | 1013.1 |
| 20260509052849 | 20 | 44 | 0.0 | 1.6 | 0.00 | 0.00 | 0.00 | 91 | 1012.8 |
| 20260509052345 | 20 | 77 | 3.2 | 3.2 | 0.00 | 0.00 | 0.00 | 91 | 1012.6 |
| 20260509051844 | 20 | 35 | 0.0 | 1.6 | 0.00 | 0.00 | 0.00 | 91 | 1012.6 |
| 20260509051341 | 20 | 50 | 0.0 | 3.2 | 0.00 | 0.00 | 0.00 | 91 | 1012.5 |
| 20260509050837 | 20 | 174 | 0.0 | 0.0 | 0.00 | 0.00 | 0.00 | 91 | 1012.5 |
| 20260509050334 | 20 | 142 | 0.0 | 3.2 | 0.00 | 0.00 | 0.00 | 91 | 1012.3 |
| 20260509045831 | 20 | 79 | 1.6 | 3.2 | 0.00 | 0.03 | 0.03 | 91 | 1012.2 |
| 20260509045328 | 20 | 103 | 0.0 | 4.8 | 0.00 | 0.03 | 0.03 | 91 | 1012.5 |
| 20260509044826 | 20 | 104 | 0.0 | 3.2 | 0.00 | 0.03 | 0.03 | 91 | 1012.4 |
| 20260509044323 | 20 | 92 | 3.2 | 3.2 | 0.00 | 0.03 | 0.03 | 90 | 1012.4 |
| 20260509043819 | 20 | 88 | 1.6 | 4.8 | 0.00 | 0.03 | 0.03 | 90 | 1012.4 |
| 20260509043315 | 20 | 110 | 0.0 | 1.6 | 0.00 | 0.03 | 0.03 | 90 | 1012.5 |
| 20260509042811 | 20 | 89 | 1.6 | 3.2 | 0.00 | 0.03 | 0.03 | 90 | 1012.2 |
| 20260509042308 | 20 | 93 | 0.0 | 3.2 | 0.00 | 0.03 | 0.03 | 89 | 1012.2 |
| 20260509041805 | 20 | 99 | 4.8 | 8.0 | 0.00 | 0.03 | 0.03 | 89 | 1012.1 |
| 20260509041302 | 20 | 83 | 1.6 | 3.2 | 0.00 | 0.03 | 0.03 | 88 | 1012.2 |
| 20260509040800 | 20 | 98 | 3.2 | 4.8 | 0.00 | 0.03 | 0.03 | 88 | 1012.0 |
| 20260509040257 | 20 | 104 | 3.2 | 6.4 | 0.00 | 0.03 | 0.03 | 88 | 1012.2 |
| 20260509035754 | 20 | 110 | 3.2 | 6.4 | 0.00 | 0.03 | 0.03 | 87 | 1012.0 |
| 20260509035251 | 20 | 108 | 6.4 | 6.4 | 0.00 | 0.03 | 0.03 | 87 | 1012.0 |
| 20260509034747 | 20 | 94 | 1.6 | 9.7 | 0.00 | 0.03 | 0.03 | 86 | 1012.1 |
| 20260509034245 | 20 | 296 | 0.0 | 6.4 | 0.00 | 0.03 | 0.03 | 86 | 1012.1 |
| 20260509033742 | 20 | 82 | 3.2 | 6.4 | 0.00 | 0.03 | 0.03 | 86 | 1011.9 |
| 20260509033239 | 20 | 81 | 3.2 | 4.8 | 0.00 | 0.03 | 0.03 | 86 | 1011.9 |
| 20260509032736 | 20 | 95 | 3.2 | 3.2 | 0.00 | 0.03 | 0.03 | 86 | 1011.9 |
| 20260509032233 | 20 | 89 | 0.0 | 3.2 | 0.00 | 0.03 | 0.03 | 86 | 1011.9 |
| 20260509031730 | 20 | 89 | 0.0 | 3.2 | 0.00 | 0.03 | 0.03 | 87 | 1011.9 |
| 20260509031228 | 20 | 72 | 0.0 | 1.6 | 0.00 | 0.03 | 0.03 | 88 | 1011.7 |
| 20260509030726 | 20 | 89 | 0.0 | 1.6 | 0.00 | 0.03 | 0.03 | 88 | 1011.8 |
| 20260509030223 | 20 | 89 | 0.0 | 1.6 | 0.00 | 0.03 | 0.03 | 87 | 1011.5 |
| 20260509025720 | 19 | 55 | 0.0 | 1.6 | 0.00 | 0.03 | 0.03 | 87 | 1011.5 |
| 20260509025215 | 19 | 34 | 3.2 | 3.2 | 0.00 | 0.03 | 0.03 | 87 | 1011.5 |
| 20260509024710 | 19 | 34 | 0.0 | 1.6 | 0.00 | 0.03 | 0.03 | 86 | 1011.2 |
| 20260509024207 | 19 | 131 | 0.0 | 1.6 | 0.00 | 0.03 | 0.03 | 86 | 1011.0 |
| 20260509023704 | 19 | 62 | 0.0 | 1.6 | 0.00 | 0.03 | 0.03 | 85 | 1011.1 |
| 20260509023201 | 19 | 61 | 0.0 | 3.2 | 0.00 | 0.03 | 0.03 | 85 | 1010.9 |
| 20260509022657 | 19 | 109 | 1.6 | 3.2 | 0.00 | 0.03 | 0.03 | 85 | 1010.9 |
| 20260509022155 | 19 | 54 | 0.0 | 1.6 | 0.00 | 0.03 | 0.03 | 85 | 1010.9 |
| 20260509021652 | 19 | 80 | 0.0 | 1.6 | 0.00 | 0.03 | 0.03 | 83 | 1011.1 |
| 20260509021149 | 20 | 55 | 0.0 | 1.6 | 0.00 | 0.03 | 0.03 | 83 | 1010.8 |
| 20260509020648 | 20 | 127 | 0.0 | 1.6 | 0.00 | 0.03 | 0.03 | 83 | 1010.7 |
| 20260509020144 | 20 | 62 | 0.0 | 1.6 | 0.00 | 0.03 | 0.03 | 82 | 1010.7 |
| 20260509015643 | 20 | 46 | 0.0 | 3.2 | 0.00 | 0.03 | 0.03 | 81 | 1010.7 |
| 20260509015140 | 20 | 71 | 0.0 | 0.0 | 0.00 | 0.03 | 0.03 | 80 | 1010.5 |
| 20260509014637 | 20 | 60 | 1.6 | 3.2 | 0.00 | 0.03 | 0.03 | 80 | 1010.4 |
| 20260509014133 | 20 | 76 | 0.0 | 0.0 | 0.00 | 0.03 | 0.03 | 78 | 1010.5 |
| 20260509013630 | 21 | 66 | 0.0 | 0.0 | 0.00 | 0.03 | 0.03 | 77 | 1010.5 |
| 20260509013126 | 21 | 37 | 0.0 | 1.6 | 0.00 | 0.03 | 0.03 | 77 | 1010.5 |
| 20260509012623 | 21 | 66 | 0.0 | 1.6 | 0.00 | 0.03 | 0.03 | 76 | 1010.5 |
| 20260509012120 | 21 | 77 | 0.0 | 3.2 | 0.00 | 0.03 | 0.03 | 75 | 1010.6 |
| 20260509011618 | 21 | 85 | 0.0 | 3.2 | 0.00 | 0.03 | 0.03 | 75 | 1010.4 |
| 20260509011114 | 21 | 104 | 1.6 | 4.8 | 0.00 | 0.03 | 0.03 | 75 | 1010.6 |
| 20260509010612 | 21 | 44 | 0.0 | 0.0 | 0.00 | 0.03 | 0.03 | 74 | 1010.5 |
| 20260509010108 | 21 | 72 | 1.6 | 3.2 | 0.00 | 0.03 | 0.03 | 73 | 1010.5 |
| 20260509005606 | 21 | 161 | 1.6 | 3.2 | 0.00 | 0.03 | 0.03 | 72 | 1010.4 |
| 20260509005101 | 22 | 69 | 0.0 | 3.2 | 0.00 | 0.03 | 0.03 | 71 | 1010.3 |
| 20260509004558 | 22 | 73 | 0.0 | 3.2 | 0.00 | 0.03 | 0.03 | 70 | 1010.2 |
| 20260509004055 | 22 | 54 | 0.0 | 8.0 | 0.00 | 0.03 | 0.03 | 69 | 1010.0 |
| 20260509003554 | 22 | 164 | 3.2 | 4.8 | 0.00 | 0.03 | 0.03 | 69 | 1009.8 |
| 20260509003050 | 22 | 325 | 1.6 | 4.8 | 0.00 | 0.03 | 0.03 | 69 | 1009.8 |
| 20260509002548 | 23 | 82 | 3.2 | 4.8 | 0.00 | 0.03 | 0.03 | 69 | 1009.9 |
| 20260509002046 | 23 | 152 | 4.8 | 6.4 | 0.00 | 0.03 | 0.03 | 68 | 1009.8 |
| 20260509001542 | 23 | 103 | 4.8 | 8.0 | 0.00 | 0.03 | 0.03 | 68 | 1009.6 |
| 20260509001038 | 23 | 26 | 0.0 | 9.7 | 0.00 | 0.03 | 0.03 | 68 | 1009.3 |
| 20260509000537 | 23 | 224 | 0.0 | 4.8 | 0.00 | 0.03 | 0.03 | 69 | 1009.4 |